O3B FM3 1 40079U 14038A 21112.73599837 -.00000016 00000-0 00000-0 0 9992 2 40079 0.0457 4.4731 0000352 338.6744 16.8526 5.00115465118928 O3B FM7 1 40080U 14038B 21112.68248181 -.00000016 00000-0 00000-0 0 9991 2 40080 0.0434 359.4308 0004410 29.3519 331.2429 5.00115688123740 O3B FM6 1 40081U 14038C 21112.70857367 -.00000016 00000-0 00000-0 0 9997 2 40081 0.0448 5.1880 0002630 24.9466 329.8818 5.00115674123706 O3B FM8 1 40082U 14038D 21111.76301949 -.00000017 00000-0 00000-0 0 9994 2 40082 0.0418 6.0893 0002568 26.9429 326.9851 5.00115326123775 FREGAT R/B 1 40083U 14038E 21112.67044132 -.00000014 00000-0 00000-0 0 9991 2 40083 0.1513 24.5178 0009726 239.4511 95.9216 5.21125582129154